#timestamp,LO_Frequency,Hit,StdDev 
1593561615.1,286047001.1,N
1593561635.9,286047002.5,N
1593561655.7,286047002.1,N
1593561675.5,286047002.6,N
1593561695.4,286047002.1,N
1593561715.2,286047001.9,N
1593561735.1,286046999.8,N
1593561736.0,286046999.8,N
1593561755.8,286046999.8,N
1593561775.6,286047002.3,N
1593561795.5,286047002.4,N
1593561815.3,286047000.1,N
1593561835.1,286047002.8,N
1593561855.9,286047004.4,N
1593561875.7,286047001.3,N
1593561895.6,286047002.2,N
1593561915.4,286047002.2,N
1593561935.2,286047000.4,N
1593561955.1,286047002.7,N
1593561956.0,286047002.7,N
1593561975.8,286046999.7,N
1593561995.7,286047000.6,N
1593562015.5,286047000.2,N
1593562035.3,286047001.6,N
1593562055.2,286047000.6,N
1593562075.0,286046999.9,N
1593562075.9,286046999.9,N
1593562095.7,286047001.0,N
1593562115.6,286047000.0,N
1593562135.4,286047001.6,N
1593562155.3,286047004.0,Y
1593562175.1,286047000.1,P
1593562195.8,286047000.4,N
1593562215.7,286046999.7,N
1593562235.5,286046998.5,N
1593562255.4,286046998.2,N
1593562275.2,286047000.7,N
1593562295.0,286047000.1,N
1593562295.9,286047000.1,N
1593562315.8,286047001.2,N
1593562335.6,286047000.0,N
1593562355.4,286047002.0,N
1593562375.3,286047000.1,N
1593562395.1,286047002.3,N
1593562415.9,286047001.5,N
1593562435.7,286046999.7,N
1593562455.5,286046999.7,N
1593562475.4,286047002.0,N
1593562495.2,286046999.9,N
1593562515.0,286047002.7,N
1593562516.0,286047002.7,N
1593562535.8,286047001.1,N
1593562555.6,286047000.3,N
1593562575.5,286047000.8,N
1593562595.3,286046998.8,N
1593562615.1,286046998.6,N
1593562635.9,286046999.2,N
1593562655.7,286046999.6,N
1593562675.6,286046996.9,N
1593562695.4,286046999.2,N
1593562715.2,286046999.0,N
1593562735.1,286046999.4,N
1593562736.0,286046999.4,N
1593562755.8,286046998.6,N
1593562775.6,286046996.9,N
1593562795.5,286046997.0,N
1593562815.3,286046998.8,N
1593562835.2,286047001.2,N
1593562855.9,286046999.0,N
1593562875.7,286046999.2,N
1593562895.6,286046997.1,N
1593562915.4,286046999.1,N
1593562935.2,286046999.2,N
1593562955.1,286046999.6,N
1593562956.0,286046999.6,N
1593562975.8,286046997.2,N
1593562995.7,286046996.9,N
1593563015.5,286046998.8,N
1593563035.3,286046998.4,N
1593563055.2,286046998.9,N
1593563075.0,286046997.0,N
1593563075.9,286046997.0,N
1593563095.8,286046996.7,N
1593563115.6,286046997.4,N
1593563135.4,286046997.2,N
1593563155.3,286046997.5,N
1593563175.1,286046999.1,N
1593563195.9,286046996.9,N
1593563215.7,286046997.8,N
1593563235.5,286046999.6,N
1593563255.4,286046996.9,N
1593563275.2,286046996.6,N
1593563295.0,286046999.5,N
1593563295.9,286046999.5,N
1593563315.8,286046997.1,N
1593563335.6,286046997.6,N
1593563355.5,286046996.2,Y
1593563375.3,286046997.4,P
1593563395.1,286046997.1,P
1593563415.9,286046998.5,P
1593563435.7,286046995.8,Y
1593563455.6,286046998.6,P
1593563475.4,286047000.3,N
1593563495.2,286047000.1,N
1593563515.1,286047002.6,N
1593563516.0,286047002.6,N
1593563535.8,286047000.2,N
1593563555.7,286047000.6,N
1593563575.5,286047000.4,N
1593563595.3,286047000.8,N
1593563615.2,286047001.1,N
1593563635.0,286047000.6,N
1593563635.9,286047000.6,N
1593563655.7,286047000.9,N
1593563675.6,286046998.6,N
1593563695.4,286046999.6,N
1593563715.3,286046999.3,N
1593563735.1,286046998.6,N
1593563736.0,286046998.6,N
1593563755.8,286046998.7,N
1593563775.7,286046999.2,N
1593563795.5,286046997.1,N
1593563815.3,286046996.7,N
1593563835.2,286046999.4,N
1593563855.0,286046996.7,N
1593563855.9,286046996.7,N
1593563875.8,286046999.1,N
1593563895.6,286046998.2,N
1593563915.4,286046998.5,N
1593563935.3,286046999.2,N
1593563955.1,286046997.1,N
1593563975.9,286046995.2,Y
1593563995.7,286046999.2,P
1593564015.5,286046996.9,P
1593564035.4,286046997.1,N
1593564055.2,286046999.5,N
1593564075.0,286047000.7,N
1593564106.0,286047000.5,E
1593564115.9,286047001.2,N
1593564135.7,286046999.0,P
1593564155.6,286046999.2,N
1593564175.4,286046998.3,N
1593564195.3,286046998.5,N
1593564215.1,286047001.1,N
1593564216.0,286047001.1,N
1593564235.8,286047000.0,N
1593564255.7,286046998.2,N
1593564275.5,286046997.2,N
1593564295.3,286046995.4,Y
1593564315.2,286046994.9,P
1593564335.0,286046995.4,N
1593564335.9,286046995.4,N
1593564355.8,286046997.7,N
1593564375.6,286046997.6,N
1593564395.4,286046996.8,N
1593564415.3,286046996.5,N
1593564435.1,286046998.9,N
1593564455.9,286046996.0,N
1593564475.7,286046996.0,N
1593564495.5,286046995.4,Y
1593564515.4,286046999.2,P
1593564535.2,286047000.3,N
1593564555.0,286047002.3,N
1593564555.9,286047002.3,N
1593564575.8,286047000.2,N
1593564595.6,286046999.8,N
1593564615.5,286047003.5,N
1593564635.3,286047000.5,N
1593564655.1,286046999.9,N
1593564675.9,286047002.7,N
1593564695.7,286047002.3,N
1593564715.6,286047002.0,N
1593564735.4,286047003.9,N
1593564755.2,286047003.6,N
1593564775.1,286047003.5,N
1593564776.0,286047003.5,N
1593564795.8,286047002.3,N
1593564815.6,286046998.6,N
1593564835.5,286046996.9,N
1593564855.3,286046997.1,N
1593564875.2,286046998.4,N
1593564895.9,286047002.4,N
1593564915.7,286046999.4,N
1593564935.6,286046999.0,N
1593564955.4,286046998.7,N
1593564975.2,286046997.0,N
1593564995.1,286046997.8,N
1593564996.0,286046997.8,N
1593565015.8,286046999.5,N
1593565035.7,286046999.3,N
1593565055.5,286047000.8,N
1593565075.3,286046999.8,N
1593565095.2,286046999.9,N
1593565115.0,286047002.3,N
1593565115.9,286047002.3,N
1593565135.8,286047002.4,N
1593565155.6,286046998.2,N
1593565175.4,286047002.5,N
1593565195.3,286047000.4,N
